Content
SEND FEEDBACK

Daily
Averages
Monthly
Summary
United States of America

ASATDAS, GUAM


Home > North America > United States > Guam
Elevation: 612 feet     Latitude: 13 35N     Longitude: 144 56E

WEATHER
 
SELECT A DAY
Number of Records: 209,106;   Date Range: 1/1/95 - 8/12/14
 
SHARE

PRINT THIS DATA

[ ← Previous Day ]
WEATHER ALMANAC - MAY 25, 2013
[ Next Day → ]
[ °C ]   °F
Weather ElementAverageHighLow
Temperature85.9 °F91.9 °F (12:54 pm)81 °F (3:54 am)
Dewpoint73.8 °F75 °F (1:54 pm)72 °F (12:54 pm)
Humidity67.5 %77 % (3:54 am)52 % (12:54 pm)
Barometer29.86 in29.91 in (9:54 pm)29.83 in (1:54 am)
Wind Speed6.9 mph12.7 mph (4:54 pm)
Wind Gust17.3 mph (11:54 am)
Weather ElementAverage
Visibility10 mi
Wind DirectionE (95.2 °)

Weather ElementTotal
Precipitation---
Cooling Degree Days21.5 (Base 65)
Growing Degree Days36.5 (Base 50)
Averaged from 23 records on May 25, 2013
WEATHER CONDITIONS BREAKOUT
WIND DIRECTION BREAKOUT
WEATHER BY HOUR - MAY 25, 2013
[ °C ]   °F
Local TimeTemperatureDewpointHumidityBarometerVisibilityWind DirectionWind SpeedGust SpeedPrecipitationEventsConditions
1:54 AM82.0 °F73.9 °F76 %29.83 in10.0 miESE (110°)4.6 mphClear
2:54 AM82.9 °F73.9 °F74 %29.83 in10.0 miESE (110°)3.5 mphClear
3:54 AM81.0 °F73.0 °F77 %29.83 in10.0 miCalmPartly Cloudy
4:54 AM82.0 °F73.9 °F76 %29.84 in10.0 miESE (110°)4.6 mphClear
5:54 AM82.0 °F73.9 °F76 %29.85 in10.0 miCalmClear
6:54 AM84.0 °F73.9 °F72 %29.87 in10.0 miCalmClear
7:54 AM86.0 °F73.9 °F67 %29.88 in10.0 miEast (90°)9.2 mphPartly Cloudy
8:54 AM87.1 °F73.0 °F63 %29.89 in10.0 miSE (140°)9.2 mphPartly Cloudy
9:54 AM89.1 °F73.9 °F61 %29.89 in10.0 miEast (100°)10.4 mphScattered Clouds
10:54 AM90.0 °F73.0 °F57 %29.88 in10.0 miEast (90°)11.5 mphPartly Cloudy
11:54 AM90.0 °F73.9 °F59 %29.87 in10.0 miSE (130°)10.4 mph17.3 mphScattered Clouds
12:54 PM91.9 °F72.0 °F52 %29.86 in10.0 miEast (90°)11.5 mphClear
1:54 PM91.0 °F75.0 °F59 %29.84 in10.0 miSE (130°)8.1 mphPartly Cloudy
2:54 PM89.1 °F75.0 °F63 %29.83 in10.0 miESE (120°)11.5 mph17.3 mphScattered Clouds
3:54 PM89.1 °F73.0 °F59 %29.83 in10.0 miSE (130°)8.1 mphScattered Clouds
4:54 PM87.1 °F73.9 °F65 %29.83 in10.0 miESE (110°)12.7 mphMostly Cloudy
5:54 PM87.1 °F73.9 °F65 %29.85 in10.0 miEast (100°)9.2 mphScattered Clouds
6:54 PM84.9 °F73.0 °F67 %29.86 in10.0 miESE (110°)4.6 mphScattered Clouds
7:54 PM84.0 °F73.9 °F72 %29.88 in10.0 miESE (110°)5.8 mphPartly Cloudy
8:54 PM84.0 °F73.9 °F72 %29.89 in10.0 miESE (110°)6.9 mphPartly Cloudy
9:54 PM84.0 °F73.9 °F72 %29.91 in10.0 miESE (110°)5.8 mphPartly Cloudy
10:54 PM84.0 °F75.0 °F74 %29.91 in10.0 miESE (110°)4.6 mphScattered Clouds
11:54 PM82.9 °F73.9 °F74 %29.91 in10.0 miEast (80°)5.8 mphScattered Clouds
Hourly data recorded from PGUM, located miles away from Asatdas, Guam







STORIES FROM OUR PARTNERS